iso_date,epoch_date,Year,Hour,Min,DOY,POS_DOY,Lat,Lon,BP,Ts,Ta,has_bp,has_ts,has_ta,BuoyID,Buoy_Type,Buoy_Owner,Logistics,Hemisphere
2013-05-05T00:00:00Z,1367712000,2013,0,0,125.0,125.0,82.5114,-62.3284,1021.3,-10.8,-999.0,yes,yes,no,300234011547160,CALIB,unknown,unknown,North
2013-05-05T01:00:28Z,1367715629,2013,1,0,125.042,125.0,82.5114,-62.3284,1019.8,-11.3,-999.0,yes,yes,no,300234011547160,CALIB,unknown,unknown,North
2013-05-05T01:59:31Z,1367719171,2013,2,0,125.083,125.0,82.5114,-62.3284,1020.7,-12.1,-999.0,yes,yes,no,300234011547160,CALIB,unknown,unknown,North
2013-05-05T03:00:00Z,1367722800,2013,3,0,125.125,125.125,82.5114,-62.3284,1019.9,-12.8,-999.0,yes,yes,no,300234011547160,CALIB,unknown,unknown,North
2013-05-05T04:00:28Z,1367726429,2013,4,0,125.167,125.125,82.5114,-62.3284,1019.8,-13.7,-999.0,yes,yes,no,300234011547160,CALIB,unknown,unknown,North
2013-05-05T04:59:31Z,1367729971,2013,5,0,125.208,125.125,82.5114,-62.3284,1019.4,-14.8,-999.0,yes,yes,no,300234011547160,CALIB,unknown,unknown,North
2013-05-05T06:00:00Z,1367733600,2013,6,0,125.25,125.25,82.5114,-62.3286,1019.7,-15.6,-999.0,yes,yes,no,300234011547160,CALIB,unknown,unknown,North
2013-05-05T07:00:28Z,1367737229,2013,7,0,125.292,125.25,82.5114,-62.3286,1020.0,-15.8,-999.0,yes,yes,no,300234011547160,CALIB,unknown,unknown,North
2013-05-05T07:59:31Z,1367740771,2013,8,0,125.333,125.25,82.5114,-62.3286,1020.0,-15.7,-999.0,yes,yes,no,300234011547160,CALIB,unknown,unknown,North
2013-05-05T09:00:00Z,1367744400,2013,9,0,125.375,125.375,82.5114,-62.3286,1019.5,-15.7,-999.0,yes,yes,no,300234011547160,CALIB,unknown,unknown,North
2013-05-05T10:00:28Z,1367748029,2013,10,0,125.417,125.375,82.5114,-62.3286,1019.9,-15.5,-999.0,yes,yes,no,300234011547160,CALIB,unknown,unknown,North
2013-05-05T10:59:31Z,1367751571,2013,11,0,125.458,125.375,82.5114,-62.3286,1019.2,-15.1,-999.0,yes,yes,no,300234011547160,CALIB,unknown,unknown,North
2013-05-05T12:00:00Z,1367755200,2013,12,0,125.5,125.5,82.5114,-62.3284,1019.3,-14.7,-999.0,yes,yes,no,300234011547160,CALIB,unknown,unknown,North
2013-05-05T13:00:28Z,1367758829,2013,13,0,125.542,125.5,82.5114,-62.3284,1018.6,-14.1,-999.0,yes,yes,no,300234011547160,CALIB,unknown,unknown,North
2013-05-05T13:59:31Z,1367762371,2013,14,0,125.583,125.5,82.5114,-62.3284,1018.0,-13.6,-999.0,yes,yes,no,300234011547160,CALIB,unknown,unknown,North
2013-05-05T15:00:00Z,1367766000,2013,15,0,125.625,125.625,82.5114,-62.3286,1017.9,-13.2,-999.0,yes,yes,no,300234011547160,CALIB,unknown,unknown,North
2013-05-05T16:00:28Z,1367769629,2013,16,0,125.667,125.625,82.5114,-62.3286,1017.3,-12.7,-999.0,yes,yes,no,300234011547160,CALIB,unknown,unknown,North
2013-05-05T16:59:31Z,1367773171,2013,17,0,125.708,125.625,82.5114,-62.3286,1017.1,-13.0,-999.0,yes,yes,no,300234011547160,CALIB,unknown,unknown,North
2013-05-05T18:00:00Z,1367776800,2013,18,0,125.75,125.75,82.5114,-62.3286,1017.0,-13.0,-999.0,yes,yes,no,300234011547160,CALIB,unknown,unknown,North
2013-05-05T19:00:28Z,1367780429,2013,19,0,125.792,125.75,82.5114,-62.3286,1016.4,-12.4,-999.0,yes,yes,no,300234011547160,CALIB,unknown,unknown,North
2013-05-05T19:59:31Z,1367783971,2013,20,0,125.833,125.75,82.5114,-62.3286,1016.2,-11.9,-999.0,yes,yes,no,300234011547160,CALIB,unknown,unknown,North
2013-05-05T21:00:00Z,1367787600,2013,21,0,125.875,125.875,82.5114,-62.3284,1016.1,-11.7,-999.0,yes,yes,no,300234011547160,CALIB,unknown,unknown,North
2013-05-05T22:00:28Z,1367791229,2013,22,0,125.917,125.875,82.5114,-62.3284,1016.4,-11.8,-999.0,yes,yes,no,300234011547160,CALIB,unknown,unknown,North
2013-05-05T22:59:31Z,1367794771,2013,23,0,125.958,125.875,82.5114,-62.3284,1015.3,-12.0,-999.0,yes,yes,no,300234011547160,CALIB,unknown,unknown,North
2013-05-06T00:00:00Z,1367798400,2013,0,0,126.0,126.0,82.5114,-62.3286,1015.2,-12.4,-999.0,yes,yes,no,300234011547160,CALIB,unknown,unknown,North
2013-05-06T01:00:28Z,1367802029,2013,1,0,126.042,126.0,82.5114,-62.3286,1015.1,-13.1,-999.0,yes,yes,no,300234011547160,CALIB,unknown,unknown,North
2013-05-06T01:59:31Z,1367805571,2013,2,0,126.083,126.0,82.5114,-62.3286,1015.1,-13.9,-999.0,yes,yes,no,300234011547160,CALIB,unknown,unknown,North
2013-05-06T03:00:00Z,1367809200,2013,3,0,126.125,126.125,82.5114,-62.3286,1015.0,-14.4,-999.0,yes,yes,no,300234011547160,CALIB,unknown,unknown,North
2013-05-06T04:00:28Z,1367812829,2013,4,0,126.167,126.125,82.5114,-62.3286,1014.9,-15.0,-999.0,yes,yes,no,300234011547160,CALIB,unknown,unknown,North
2013-05-06T04:59:31Z,1367816371,2013,5,0,126.208,126.125,82.5114,-62.3286,1014.8,-15.4,-999.0,yes,yes,no,300234011547160,CALIB,unknown,unknown,North
2013-05-06T06:00:00Z,1367820000,2013,6,0,126.25,126.25,82.5114,-62.3286,1014.1,-16.2,-999.0,yes,yes,no,300234011547160,CALIB,unknown,unknown,North
2013-05-06T07:00:28Z,1367823629,2013,7,0,126.292,126.25,82.5114,-62.3286,1014.8,-16.2,-999.0,yes,yes,no,300234011547160,CALIB,unknown,unknown,North
2013-05-06T07:59:31Z,1367827171,2013,8,0,126.333,126.25,82.5114,-62.3286,1014.6,-15.9,-999.0,yes,yes,no,300234011547160,CALIB,unknown,unknown,North
2013-05-06T09:00:00Z,1367830800,2013,9,0,126.375,126.375,82.5114,-62.3286,1014.3,-15.5,-999.0,yes,yes,no,300234011547160,CALIB,unknown,unknown,North
2013-05-06T10:00:28Z,1367834429,2013,10,0,126.417,126.375,82.5114,-62.3286,1014.3,-15.1,-999.0,yes,yes,no,300234011547160,CALIB,unknown,unknown,North
2013-05-06T10:59:31Z,1367837971,2013,11,0,126.458,126.375,82.5114,-62.3286,1014.3,-14.6,-999.0,yes,yes,no,300234011547160,CALIB,unknown,unknown,North
2013-05-06T12:00:00Z,1367841600,2013,12,0,126.5,126.5,82.5114,-62.3286,1014.0,-14.1,-999.0,yes,yes,no,300234011547160,CALIB,unknown,unknown,North
2013-05-06T13:00:28Z,1367845229,2013,13,0,126.542,126.5,82.5114,-62.3286,1013.9,-13.8,-999.0,yes,yes,no,300234011547160,CALIB,unknown,unknown,North
2013-05-06T13:59:31Z,1367848771,2013,14,0,126.583,126.5,82.5114,-62.3286,1013.8,-13.4,-999.0,yes,yes,no,300234011547160,CALIB,unknown,unknown,North
2013-05-06T15:00:00Z,1367852400,2013,15,0,126.625,126.625,82.5114,-62.3284,1013.7,-13.0,-999.0,yes,yes,no,300234011547160,CALIB,unknown,unknown,North
2013-05-06T16:00:28Z,1367856029,2013,16,0,126.667,126.625,82.5114,-62.3284,1013.3,-12.6,-999.0,yes,yes,no,300234011547160,CALIB,unknown,unknown,North
2013-05-06T16:59:31Z,1367859571,2013,17,0,126.708,126.625,82.5114,-62.3284,1013.2,-12.4,-999.0,yes,yes,no,300234011547160,CALIB,unknown,unknown,North
2013-05-06T18:00:00Z,1367863200,2013,18,0,126.75,126.75,82.5114,-62.3286,1013.3,-11.9,-999.0,yes,yes,no,300234011547160,CALIB,unknown,unknown,North
2013-05-06T19:00:28Z,1367866829,2013,19,0,126.792,126.75,82.5114,-62.3286,1013.3,-11.9,-999.0,yes,yes,no,300234011547160,CALIB,unknown,unknown,North
2013-05-06T19:59:31Z,1367870371,2013,20,0,126.833,126.75,82.5114,-62.3286,1013.4,-11.6,-999.0,yes,yes,no,300234011547160,CALIB,unknown,unknown,North
2013-05-06T21:00:00Z,1367874000,2013,21,0,126.875,126.875,82.5114,-62.3284,1013.2,-11.5,-999.0,yes,yes,no,300234011547160,CALIB,unknown,unknown,North
2013-05-06T22:00:28Z,1367877629,2013,22,0,126.917,126.875,82.5114,-62.3284,1012.5,-11.5,-999.0,yes,yes,no,300234011547160,CALIB,unknown,unknown,North
2013-05-06T22:59:31Z,1367881171,2013,23,0,126.958,126.875,82.5114,-62.3284,1011.9,-11.7,-999.0,yes,yes,no,300234011547160,CALIB,unknown,unknown,North
2013-05-07T00:00:00Z,1367884800,2013,0,0,127.0,127.0,82.5112,-62.3288,1011.2,-10.7,-999.0,yes,yes,no,300234011547160,CALIB,unknown,unknown,North
2013-05-07T01:00:28Z,1367888429,2013,1,0,127.042,127.0,82.5112,-62.3288,1011.7,-13.4,-999.0,yes,yes,no,300234011547160,CALIB,unknown,unknown,North
2013-05-07T01:59:31Z,1367891971,2013,2,0,127.083,127.0,82.5112,-62.3288,1011.9,-14.2,-999.0,yes,yes,no,300234011547160,CALIB,unknown,unknown,North
2013-05-07T03:00:00Z,1367895600,2013,3,0,127.125,127.125,82.5112,-62.3302,1011.5,-14.7,-999.0,yes,yes,no,300234011547160,CALIB,unknown,unknown,North
2013-05-07T04:00:28Z,1367899229,2013,4,0,127.167,127.125,82.5112,-62.3302,1011.2,-15.2,-999.0,yes,yes,no,300234011547160,CALIB,unknown,unknown,North
2013-05-07T04:59:31Z,1367902771,2013,5,0,127.208,127.125,82.5112,-62.3302,1010.7,-15.7,-999.0,yes,yes,no,300234011547160,CALIB,unknown,unknown,North
2013-05-07T06:00:00Z,1367906400,2013,6,0,127.25,127.25,82.5112,-62.329,1010.3,-15.9,-999.0,yes,yes,no,300234011547160,CALIB,unknown,unknown,North
2013-05-07T07:00:28Z,1367910029,2013,7,0,127.292,127.25,82.5112,-62.329,1010.0,-15.7,-999.0,yes,yes,no,300234011547160,CALIB,unknown,unknown,North
2013-05-07T07:59:31Z,1367913571,2013,8,0,127.333,127.25,82.5112,-62.329,1009.5,-15.4,-999.0,yes,yes,no,300234011547160,CALIB,unknown,unknown,North
2013-05-07T09:00:00Z,1367917200,2013,9,0,127.375,127.375,82.5112,-62.329,1009.1,-15.1,-999.0,yes,yes,no,300234011547160,CALIB,unknown,unknown,North
2013-05-07T10:00:28Z,1367920829,2013,10,0,127.417,127.375,82.5112,-62.329,1008.6,-15.0,-999.0,yes,yes,no,300234011547160,CALIB,unknown,unknown,North
2013-05-07T10:59:31Z,1367924371,2013,11,0,127.458,127.375,82.5112,-62.329,1008.3,-15.1,-999.0,yes,yes,no,300234011547160,CALIB,unknown,unknown,North
2013-05-07T12:00:00Z,1367928000,2013,12,0,127.5,127.5,82.5112,-62.3292,1007.7,-15.3,-999.0,yes,yes,no,300234011547160,CALIB,unknown,unknown,North
2013-05-07T13:00:28Z,1367931629,2013,13,0,127.542,127.5,82.5112,-62.3292,1007.2,-15.3,-999.0,yes,yes,no,300234011547160,CALIB,unknown,unknown,North
2013-05-07T13:59:31Z,1367935171,2013,14,0,127.583,127.5,82.5112,-62.3292,1007.0,-15.1,-999.0,yes,yes,no,300234011547160,CALIB,unknown,unknown,North
2013-05-07T15:00:00Z,1367938800,2013,15,0,127.625,127.625,82.5112,-62.329,1006.6,-14.6,-999.0,yes,yes,no,300234011547160,CALIB,unknown,unknown,North
2013-05-07T16:00:28Z,1367942429,2013,16,0,127.667,127.625,82.5112,-62.329,1006.3,-13.6,-999.0,yes,yes,no,300234011547160,CALIB,unknown,unknown,North
2013-05-07T16:59:31Z,1367945971,2013,17,0,127.708,127.625,82.5112,-62.329,1005.8,-12.8,-999.0,yes,yes,no,300234011547160,CALIB,unknown,unknown,North
2013-05-07T18:00:00Z,1367949600,2013,18,0,127.75,127.75,82.5112,-62.329,1005.3,-11.6,-999.0,yes,yes,no,300234011547160,CALIB,unknown,unknown,North
2013-05-07T19:00:28Z,1367953229,2013,19,0,127.792,127.75,82.5112,-62.329,1004.9,-10.6,-999.0,yes,yes,no,300234011547160,CALIB,unknown,unknown,North
2013-05-07T19:59:31Z,1367956771,2013,20,0,127.833,127.75,82.5112,-62.329,1004.5,-10.9,-999.0,yes,yes,no,300234011547160,CALIB,unknown,unknown,North
2013-05-07T21:00:00Z,1367960400,2013,21,0,127.875,127.875,82.5112,-62.3294,1004.0,-10.9,-999.0,yes,yes,no,300234011547160,CALIB,unknown,unknown,North
2013-05-07T22:00:28Z,1367964029,2013,22,0,127.917,127.875,82.5112,-62.3294,1004.7,-10.0,-999.0,yes,yes,no,300234011547160,CALIB,unknown,unknown,North
2013-05-07T22:59:31Z,1367967571,2013,23,0,127.958,127.875,82.5112,-62.3294,1004.2,-10.9,-999.0,yes,yes,no,300234011547160,CALIB,unknown,unknown,North
2013-05-08T00:00:00Z,1367971200,2013,0,0,128.0,128.0,82.5112,-62.329,1004.3,-13.9,-999.0,yes,yes,no,300234011547160,CALIB,unknown,unknown,North
2013-05-08T01:00:28Z,1367974829,2013,1,0,128.042,128.0,82.5112,-62.329,1004.3,-15.0,-999.0,yes,yes,no,300234011547160,CALIB,unknown,unknown,North
2013-05-08T01:59:31Z,1367978371,2013,2,0,128.083,128.0,82.5112,-62.329,1004.6,-16.0,-999.0,yes,yes,no,300234011547160,CALIB,unknown,unknown,North
2013-05-08T03:00:00Z,1367982000,2013,3,0,128.125,128.125,82.511,-62.329,1004.7,-16.5,-999.0,yes,yes,no,300234011547160,CALIB,unknown,unknown,North
2013-05-08T04:00:28Z,1367985629,2013,4,0,128.167,128.125,82.511,-62.329,1004.8,-16.8,-999.0,yes,yes,no,300234011547160,CALIB,unknown,unknown,North
2013-05-08T04:59:31Z,1367989171,2013,5,0,128.208,128.125,82.511,-62.329,1004.9,-17.0,-999.0,yes,yes,no,300234011547160,CALIB,unknown,unknown,North
2013-05-08T06:00:00Z,1367992800,2013,6,0,128.25,128.25,82.5112,-62.329,1005.1,-17.0,-999.0,yes,yes,no,300234011547160,CALIB,unknown,unknown,North
2013-05-08T07:00:28Z,1367996429,2013,7,0,128.292,128.25,82.5112,-62.329,1005.3,-16.8,-999.0,yes,yes,no,300234011547160,CALIB,unknown,unknown,North
2013-05-08T07:59:31Z,1367999971,2013,8,0,128.333,128.25,82.5112,-62.329,1005.5,-16.5,-999.0,yes,yes,no,300234011547160,CALIB,unknown,unknown,North
2013-05-08T09:00:00Z,1368003600,2013,9,0,128.375,128.375,82.5112,-62.329,1005.7,-16.1,-999.0,yes,yes,no,300234011547160,CALIB,unknown,unknown,North
2013-05-08T10:00:28Z,1368007229,2013,10,0,128.417,128.375,82.5112,-62.329,1005.7,-15.6,-999.0,yes,yes,no,300234011547160,CALIB,unknown,unknown,North
2013-05-08T10:59:31Z,1368010771,2013,11,0,128.458,128.375,82.5112,-62.329,1005.6,-15.4,-999.0,yes,yes,no,300234011547160,CALIB,unknown,unknown,North
2013-05-08T12:00:00Z,1368014400,2013,12,0,128.5,128.5,82.5112,-62.329,1005.8,-14.8,-999.0,yes,yes,no,300234011547160,CALIB,unknown,unknown,North
2013-05-08T13:00:28Z,1368018029,2013,13,0,128.542,128.5,82.5112,-62.329,1005.3,-14.6,-999.0,yes,yes,no,300234011547160,CALIB,unknown,unknown,North
2013-05-08T13:59:31Z,1368021571,2013,14,0,128.583,128.5,82.5112,-62.329,1005.8,-14.0,-999.0,yes,yes,no,300234011547160,CALIB,unknown,unknown,North
2013-05-08T15:00:00Z,1368025200,2013,15,0,128.625,128.625,82.5112,-62.329,1005.7,-13.1,-999.0,yes,yes,no,300234011547160,CALIB,unknown,unknown,North
2013-05-08T16:00:28Z,1368028829,2013,16,0,128.667,128.625,82.5112,-62.329,1005.7,-11.6,-999.0,yes,yes,no,300234011547160,CALIB,unknown,unknown,North
2013-05-08T16:59:31Z,1368032371,2013,17,0,128.708,128.625,82.5112,-62.329,1005.5,-10.9,-999.0,yes,yes,no,300234011547160,CALIB,unknown,unknown,North
2013-05-08T18:00:00Z,1368036000,2013,18,0,128.75,128.75,82.5112,-62.329,1005.4,-10.0,-999.0,yes,yes,no,300234011547160,CALIB,unknown,unknown,North
2013-05-08T19:00:28Z,1368039629,2013,19,0,128.792,128.75,82.5112,-62.329,1005.2,-9.9,-999.0,yes,yes,no,300234011547160,CALIB,unknown,unknown,North
2013-05-08T19:59:31Z,1368043171,2013,20,0,128.833,128.75,82.5112,-62.329,1005.1,-10.7,-999.0,yes,yes,no,300234011547160,CALIB,unknown,unknown,North
2013-05-08T21:00:00Z,1368046800,2013,21,0,128.875,128.875,82.5112,-62.3292,1006.4,-9.9,-999.0,yes,yes,no,300234011547160,CALIB,unknown,unknown,North
2013-05-08T22:00:28Z,1368050429,2013,22,0,128.917,128.875,82.5112,-62.3292,1006.2,-9.8,-999.0,yes,yes,no,300234011547160,CALIB,unknown,unknown,North
2013-05-08T22:59:31Z,1368053971,2013,23,0,128.958,128.875,82.5112,-62.3292,1006.2,-10.9,-999.0,yes,yes,no,300234011547160,CALIB,unknown,unknown,North
2013-05-09T00:00:00Z,1368057600,2013,0,0,129.0,129.0,82.5112,-62.329,1006.3,-12.1,-999.0,yes,yes,no,300234011547160,CALIB,unknown,unknown,North
2013-05-09T01:00:28Z,1368061229,2013,1,0,129.042,129.0,82.5112,-62.329,1006.9,-13.1,-999.0,yes,yes,no,300234011547160,CALIB,unknown,unknown,North
2013-05-09T01:59:31Z,1368064771,2013,2,0,129.083,129.0,82.5112,-62.329,1007.0,-13.8,-999.0,yes,yes,no,300234011547160,CALIB,unknown,unknown,North
2013-05-09T03:00:00Z,1368068400,2013,3,0,129.125,129.125,82.5112,-62.3292,1007.5,-14.5,-999.0,yes,yes,no,300234011547160,CALIB,unknown,unknown,North
2013-05-09T04:00:28Z,1368072029,2013,4,0,129.167,129.125,82.5112,-62.3292,1007.8,-15.0,-999.0,yes,yes,no,300234011547160,CALIB,unknown,unknown,North
2013-05-09T04:59:31Z,1368075571,2013,5,0,129.208,129.125,82.5112,-62.3292,1008.0,-15.5,-999.0,yes,yes,no,300234011547160,CALIB,unknown,unknown,North
2013-05-09T06:00:00Z,1368079200,2013,6,0,129.25,129.25,82.5112,-62.329,1008.5,-15.4,-999.0,yes,yes,no,300234011547160,CALIB,unknown,unknown,North
2013-05-09T07:00:28Z,1368082829,2013,7,0,129.292,129.25,82.5112,-62.329,1008.8,-15.7,-999.0,yes,yes,no,300234011547160,CALIB,unknown,unknown,North
2013-05-09T07:59:31Z,1368086371,2013,8,0,129.333,129.25,82.5112,-62.329,1008.7,-16.0,-999.0,yes,yes,no,300234011547160,CALIB,unknown,unknown,North
2013-05-09T09:00:00Z,1368090000,2013,9,0,129.375,129.375,82.511,-62.3288,1009.0,-16.4,-999.0,yes,yes,no,300234011547160,CALIB,unknown,unknown,North
2013-05-09T10:00:28Z,1368093629,2013,10,0,129.417,129.375,82.511,-62.3288,1009.4,-15.7,-999.0,yes,yes,no,300234011547160,CALIB,unknown,unknown,North
2013-05-09T10:59:31Z,1368097171,2013,11,0,129.458,129.375,82.511,-62.3288,1009.4,-15.3,-999.0,yes,yes,no,300234011547160,CALIB,unknown,unknown,North
2013-05-09T12:00:00Z,1368100800,2013,12,0,129.5,129.5,82.5112,-62.3292,1009.6,-14.5,-999.0,yes,yes,no,300234011547160,CALIB,unknown,unknown,North
2013-05-09T13:00:28Z,1368104429,2013,13,0,129.542,129.5,82.5112,-62.3292,1009.5,-14.5,-999.0,yes,yes,no,300234011547160,CALIB,unknown,unknown,North
2013-05-09T13:59:31Z,1368107971,2013,14,0,129.583,129.5,82.5112,-62.3292,1009.6,-14.1,-999.0,yes,yes,no,300234011547160,CALIB,unknown,unknown,North
2013-05-09T15:00:00Z,1368111600,2013,15,0,129.625,129.625,82.5112,-62.329,1009.9,-13.2,-999.0,yes,yes,no,300234011547160,CALIB,unknown,unknown,North
2013-05-09T16:00:28Z,1368115229,2013,16,0,129.667,129.625,82.5112,-62.329,1009.4,-13.0,-999.0,yes,yes,no,300234011547160,CALIB,unknown,unknown,North
2013-05-09T16:59:31Z,1368118771,2013,17,0,129.708,129.625,82.5112,-62.329,1009.1,-13.1,-999.0,yes,yes,no,300234011547160,CALIB,unknown,unknown,North
2013-05-09T18:00:00Z,1368122400,2013,18,0,129.75,129.75,82.5112,-62.329,1009.5,-12.5,-999.0,yes,yes,no,300234011547160,CALIB,unknown,unknown,North
2013-05-09T19:00:28Z,1368126029,2013,19,0,129.792,129.75,82.5112,-62.329,1009.0,-12.3,-999.0,yes,yes,no,300234011547160,CALIB,unknown,unknown,North
2013-05-09T19:59:31Z,1368129571,2013,20,0,129.833,129.75,82.5112,-62.329,1009.4,-12.5,-999.0,yes,yes,no,300234011547160,CALIB,unknown,unknown,North
2013-05-09T21:00:00Z,1368133200,2013,21,0,129.875,129.875,82.5112,-62.3284,1008.9,-12.9,-999.0,yes,yes,no,300234011547160,CALIB,unknown,unknown,North
2013-05-09T22:00:28Z,1368136829,2013,22,0,129.917,129.875,82.5112,-62.3284,1009.0,-13.5,-999.0,yes,yes,no,300234011547160,CALIB,unknown,unknown,North
2013-05-09T22:59:31Z,1368140371,2013,23,0,129.958,129.875,82.5112,-62.3284,1009.0,-14.1,-999.0,yes,yes,no,300234011547160,CALIB,unknown,unknown,North
2013-05-10T00:00:00Z,1368144000,2013,0,0,130.0,130.0,82.5112,-62.3292,1009.0,-15.0,-999.0,yes,yes,no,300234011547160,CALIB,unknown,unknown,North
2013-05-10T01:00:28Z,1368147629,2013,1,0,130.042,130.0,82.5112,-62.3292,1009.0,-15.7,-999.0,yes,yes,no,300234011547160,CALIB,unknown,unknown,North
2013-05-10T01:59:31Z,1368151171,2013,2,0,130.083,130.0,82.5112,-62.3292,1008.7,-16.5,-999.0,yes,yes,no,300234011547160,CALIB,unknown,unknown,North
2013-05-10T03:00:00Z,1368154800,2013,3,0,130.125,130.125,82.5112,-62.3288,1008.8,-17.3,-999.0,yes,yes,no,300234011547160,CALIB,unknown,unknown,North
2013-05-10T04:00:28Z,1368158429,2013,4,0,130.167,130.125,82.5112,-62.3288,1008.9,-17.8,-999.0,yes,yes,no,300234011547160,CALIB,unknown,unknown,North
2013-05-10T04:59:31Z,1368161971,2013,5,0,130.208,130.125,82.5112,-62.3288,1008.8,-17.8,-999.0,yes,yes,no,300234011547160,CALIB,unknown,unknown,North
2013-05-10T06:00:00Z,1368165600,2013,6,0,130.25,130.25,82.5112,-62.3286,1008.6,-17.7,-999.0,yes,yes,no,300234011547160,CALIB,unknown,unknown,North
2013-05-10T07:00:28Z,1368169229,2013,7,0,130.292,130.25,82.5112,-62.3286,1008.5,-17.6,-999.0,yes,yes,no,300234011547160,CALIB,unknown,unknown,North
2013-05-10T07:59:31Z,1368172771,2013,8,0,130.333,130.25,82.5112,-62.3286,1008.4,-17.5,-999.0,yes,yes,no,300234011547160,CALIB,unknown,unknown,North
2013-05-10T09:00:00Z,1368176400,2013,9,0,130.375,130.375,82.5112,-62.329,1008.4,-17.3,-999.0,yes,yes,no,300234011547160,CALIB,unknown,unknown,North
2013-05-10T10:00:28Z,1368180029,2013,10,0,130.417,130.375,82.5112,-62.329,1008.5,-17.1,-999.0,yes,yes,no,300234011547160,CALIB,unknown,unknown,North
2013-05-10T10:59:31Z,1368183571,2013,11,0,130.458,130.375,82.5112,-62.329,1008.6,-16.7,-999.0,yes,yes,no,300234011547160,CALIB,unknown,unknown,North
2013-05-10T12:00:00Z,1368187200,2013,12,0,130.5,130.5,82.5112,-62.329,1008.3,-16.4,-999.0,yes,yes,no,300234011547160,CALIB,unknown,unknown,North
2013-05-10T13:00:28Z,1368190829,2013,13,0,130.542,130.5,82.5112,-62.329,1008.2,-16.5,-999.0,yes,yes,no,300234011547160,CALIB,unknown,unknown,North
2013-05-10T13:59:31Z,1368194371,2013,14,0,130.583,130.5,82.5112,-62.329,1008.1,-16.4,-999.0,yes,yes,no,300234011547160,CALIB,unknown,unknown,North
2013-05-10T15:00:00Z,1368198000,2013,15,0,130.625,130.625,82.5114,-62.3286,1008.0,-16.4,-999.0,yes,yes,no,300234011547160,CALIB,unknown,unknown,North
2013-05-10T16:00:28Z,1368201629,2013,16,0,130.667,130.625,82.5114,-62.3286,1008.1,-16.2,-999.0,yes,yes,no,300234011547160,CALIB,unknown,unknown,North
2013-05-10T16:59:31Z,1368205171,2013,17,0,130.708,130.625,82.5114,-62.3286,1008.3,-16.0,-999.0,yes,yes,no,300234011547160,CALIB,unknown,unknown,North
2013-05-10T18:00:00Z,1368208800,2013,18,0,130.75,130.75,82.5116,-62.3286,1008.6,-15.7,-999.0,yes,yes,no,300234011547160,CALIB,unknown,unknown,North
2013-05-10T19:00:28Z,1368212429,2013,19,0,130.792,130.75,82.5116,-62.3286,1008.5,-15.5,-999.0,yes,yes,no,300234011547160,CALIB,unknown,unknown,North
2013-05-10T19:59:31Z,1368215971,2013,20,0,130.833,130.75,82.5116,-62.3286,1008.7,-15.3,-999.0,yes,yes,no,300234011547160,CALIB,unknown,unknown,North
2013-05-10T21:00:00Z,1368219600,2013,21,0,130.875,130.875,82.5114,-62.3288,1008.9,-15.2,-999.0,yes,yes,no,300234011547160,CALIB,unknown,unknown,North
2013-05-10T22:00:28Z,1368223229,2013,22,0,130.917,130.875,82.5114,-62.3288,1009.2,-15.0,-999.0,yes,yes,no,300234011547160,CALIB,unknown,unknown,North
2013-05-10T22:59:31Z,1368226771,2013,23,0,130.958,130.875,82.5114,-62.3288,1009.3,-15.0,-999.0,yes,yes,no,300234011547160,CALIB,unknown,unknown,North
2013-05-11T00:00:00Z,1368230400,2013,0,0,131.0,131.0,82.5116,-62.3286,1009.3,-15.2,-999.0,yes,yes,no,300234011547160,CALIB,unknown,unknown,North
2013-05-11T01:00:28Z,1368234029,2013,1,0,131.042,131.0,82.5116,-62.3286,1009.6,-15.3,-999.0,yes,yes,no,300234011547160,CALIB,unknown,unknown,North
2013-05-11T01:59:31Z,1368237571,2013,2,0,131.083,131.0,82.5116,-62.3286,1010.1,-15.6,-999.0,yes,yes,no,300234011547160,CALIB,unknown,unknown,North
2013-05-11T03:00:00Z,1368241200,2013,3,0,131.125,131.125,82.5114,-62.3286,1010.2,-15.7,-999.0,yes,yes,no,300234011547160,CALIB,unknown,unknown,North
2013-05-11T04:00:28Z,1368244829,2013,4,0,131.167,131.125,82.5114,-62.3286,1010.5,-15.8,-999.0,yes,yes,no,300234011547160,CALIB,unknown,unknown,North
2013-05-11T04:59:31Z,1368248371,2013,5,0,131.208,131.125,82.5114,-62.3286,1010.6,-16.0,-999.0,yes,yes,no,300234011547160,CALIB,unknown,unknown,North
2013-05-11T06:00:00Z,1368252000,2013,6,0,131.25,131.25,82.5114,-62.3286,1011.2,-16.0,-999.0,yes,yes,no,300234011547160,CALIB,unknown,unknown,North
2013-05-11T07:00:28Z,1368255629,2013,7,0,131.292,131.25,82.5114,-62.3286,1011.5,-16.2,-999.0,yes,yes,no,300234011547160,CALIB,unknown,unknown,North
2013-05-11T07:59:31Z,1368259171,2013,8,0,131.333,131.25,82.5114,-62.3286,1011.8,-16.1,-999.0,yes,yes,no,300234011547160,CALIB,unknown,unknown,North
2013-05-11T09:00:00Z,1368262800,2013,9,0,131.375,131.375,82.5114,-62.3286,1012.3,-16.1,-999.0,yes,yes,no,300234011547160,CALIB,unknown,unknown,North
2013-05-11T10:00:28Z,1368266429,2013,10,0,131.417,131.375,82.5114,-62.3286,1012.4,-16.1,-999.0,yes,yes,no,300234011547160,CALIB,unknown,unknown,North
2013-05-11T10:59:31Z,1368269971,2013,11,0,131.458,131.375,82.5114,-62.3286,1012.6,-15.9,-999.0,yes,yes,no,300234011547160,CALIB,unknown,unknown,North
2013-05-11T12:00:00Z,1368273600,2013,12,0,131.5,131.5,82.5114,-62.3286,1013.2,-15.7,-999.0,yes,yes,no,300234011547160,CALIB,unknown,unknown,North
2013-05-11T13:00:28Z,1368277229,2013,13,0,131.542,131.5,82.5114,-62.3286,1013.1,-15.3,-999.0,yes,yes,no,300234011547160,CALIB,unknown,unknown,North
2013-05-11T13:59:31Z,1368280771,2013,14,0,131.583,131.5,82.5114,-62.3286,1013.1,-14.9,-999.0,yes,yes,no,300234011547160,CALIB,unknown,unknown,North
2013-05-11T15:00:00Z,1368284400,2013,15,0,131.625,131.625,82.5114,-62.3286,1013.5,-14.5,-999.0,yes,yes,no,300234011547160,CALIB,unknown,unknown,North
2013-05-11T16:00:28Z,1368288029,2013,16,0,131.667,131.625,82.5114,-62.3286,1013.3,-14.3,-999.0,yes,yes,no,300234011547160,CALIB,unknown,unknown,North